Location: Newark
(47.9617°N, 8.0103°E)
Time: 10:39:25
(UTC+00:00)

Starlink Launch 2 leader - Visible Passes

Search period start: 15 December 2019 00:00
Search period end: 25 December 2019 00:00
Orbit: 279 x 281 km, 53.0° (Epoch: 13 November)

Date Brightness Start Highest point End Pass type
(mag) Time Alt. Az. Time Alt. Az. Time Alt. Az.
22 Dec 4.3 17:15:25 10° S 17:16:54 18° SSE 17:16:54 18° SSE visible
23 Dec 3.3 17:16:49 10° SSW 17:18:59 33° SSE 17:18:59 33° SSE visible
24 Dec 2.3 17:18:31 10° SW 17:20:58 63° SSE 17:21:00 63° SE visible
